Time,TemperatureF,DewpointF,PressureIn,WindDirection,WindDirectionDegrees,WindSpeedMPH,WindSpeedGustMPH,Humidity,HourlyPrecipIn,Conditions,Clouds,dailyrainin,SolarRadiationWatts/m^2,SoftwareType,DateUTC
2013-04-25 00:02:00,28.0,10.0,-100.00,NW,309,2.0,5.0,47,0.00,,,0.01,0.000000,,2013-04-25 06:02:00,
2013-04-25 00:11:00,28.0,10.0,-100.00,NW,309,2.0,5.0,47,0.00,,,0.01,0.000000,,2013-04-25 06:11:00,
2013-04-25 00:22:00,28.0,10.0,-100.00,NW,309,2.0,5.0,47,0.00,,,0.01,0.000000,,2013-04-25 06:22:00,
2013-04-25 00:42:00,26.0,12.0,-100.00,NNW,330,3.0,3.0,54,0.00,,,0.01,0.000000,,2013-04-25 06:42:00,
2013-04-25 00:52:00,26.0,12.0,-100.00,NNW,330,3.0,3.0,54,0.00,,,0.01,0.000000,,2013-04-25 06:52:00,
2013-04-25 01:02:00,26.0,12.0,-100.00,NNW,330,3.0,3.0,54,0.00,,,0.01,0.000000,,2013-04-25 07:02:00,
2013-04-25 01:12:00,26.0,12.0,-100.00,NNW,330,3.0,3.0,54,0.00,,,0.01,0.000000,,2013-04-25 07:12:00,
2013-04-25 01:22:00,26.0,12.0,-100.00,NNW,330,3.0,3.0,54,0.00,,,0.01,0.000000,,2013-04-25 07:22:00,
2013-04-25 01:42:00,24.0,11.0,-100.00,WNW,286,2.0,3.0,57,0.00,,,0.01,0.000000,,2013-04-25 07:42:00,
2013-04-25 01:52:00,24.0,11.0,-100.00,WNW,286,2.0,3.0,57,0.00,,,0.01,0.000000,,2013-04-25 07:52:00,
2013-04-25 02:02:00,24.0,11.0,-100.00,WNW,286,2.0,3.0,57,0.00,,,0.01,0.000000,,2013-04-25 08:02:00,
2013-04-25 02:11:00,24.0,11.0,-100.00,WNW,286,2.0,3.0,57,0.00,,,0.01,0.000000,,2013-04-25 08:11:00,
2013-04-25 02:21:00,24.0,11.0,-100.00,WNW,286,2.0,3.0,57,0.00,,,0.01,0.000000,,2013-04-25 08:21:00,
2013-04-25 02:42:00,24.0,12.0,-100.00,WNW,287,2.0,3.0,60,0.00,,,0.01,0.000000,,2013-04-25 08:42:00,
2013-04-25 02:52:00,24.0,12.0,-100.00,WNW,287,2.0,3.0,60,0.00,,,0.01,0.000000,,2013-04-25 08:52:00,
2013-04-25 03:01:00,24.0,12.0,-100.00,WNW,287,2.0,3.0,60,0.00,,,0.01,0.000000,,2013-04-25 09:01:00,
2013-04-25 03:11:00,24.0,12.0,-100.00,WNW,287,2.0,3.0,60,0.00,,,0.01,0.000000,,2013-04-25 09:11:00,
2013-04-25 03:21:00,24.0,12.0,-100.00,WNW,287,2.0,3.0,60,0.00,,,0.01,0.000000,,2013-04-25 09:21:00,
2013-04-25 03:42:00,24.0,15.0,-100.00,WNW,291,2.0,3.0,67,0.00,,,0.01,0.000000,,2013-04-25 09:42:00,
2013-04-25 03:52:00,24.0,15.0,-100.00,WNW,291,2.0,3.0,67,0.00,,,0.01,0.000000,,2013-04-25 09:52:00,
2013-04-25 04:02:00,24.0,15.0,-100.00,WNW,291,2.0,3.0,67,0.00,,,0.01,0.000000,,2013-04-25 10:02:00,
2013-04-25 04:12:00,24.0,15.0,-100.00,WNW,291,2.0,3.0,67,0.00,,,0.01,0.000000,,2013-04-25 10:12:00,
2013-04-25 04:22:00,24.0,15.0,-100.00,WNW,291,2.0,3.0,67,0.00,,,0.01,0.000000,,2013-04-25 10:22:00,
2013-04-25 04:42:00,24.0,13.0,-100.00,WNW,283,2.0,3.0,63,0.00,,,0.01,0.000000,,2013-04-25 10:42:00,
2013-04-25 04:53:00,24.0,13.0,-100.00,WNW,283,2.0,3.0,63,0.00,,,0.01,0.000000,,2013-04-25 10:53:00,
2013-04-25 05:02:00,24.0,13.0,-100.00,WNW,283,2.0,3.0,63,0.00,,,0.01,0.000000,,2013-04-25 11:02:00,
2013-04-25 05:12:00,24.0,13.0,-100.00,WNW,283,2.0,3.0,63,0.00,,,0.01,0.000000,,2013-04-25 11:12:00,
2013-04-25 05:22:00,24.0,13.0,-100.00,WNW,283,2.0,3.0,63,0.00,,,0.01,0.000000,,2013-04-25 11:22:00,
2013-04-25 05:42:00,23.0,13.0,-100.00,WNW,285,2.0,3.0,65,0.00,,,0.01,0.000000,,2013-04-25 11:42:00,
2013-04-25 05:52:00,23.0,13.0,-100.00,WNW,285,2.0,3.0,65,0.00,,,0.01,0.000000,,2013-04-25 11:52:00,
2013-04-25 06:01:00,23.0,13.0,-100.00,WNW,285,2.0,3.0,65,0.00,,,0.01,0.000000,,2013-04-25 12:01:00,
2013-04-25 06:12:00,23.0,13.0,-100.00,WNW,285,2.0,3.0,65,0.00,,,0.01,0.000000,,2013-04-25 12:12:00,
2013-04-25 06:21:00,23.0,13.0,-100.00,WNW,285,2.0,3.0,65,0.00,,,0.01,0.000000,,2013-04-25 12:21:00,
2013-04-25 06:42:00,23.0,13.0,-100.00,WNW,290,1.0,3.0,66,0.00,,,0.01,2.000000,,2013-04-25 12:42:00,
2013-04-25 06:52:00,23.0,13.0,-100.00,WNW,290,1.0,3.0,66,0.00,,,0.01,2.000000,,2013-04-25 12:52:00,
2013-04-25 07:02:00,23.0,13.0,-100.00,WNW,290,1.0,3.0,66,0.00,,,0.01,2.000000,,2013-04-25 13:02:00,
2013-04-25 07:11:00,23.0,13.0,-100.00,WNW,290,1.0,3.0,66,0.00,,,0.01,2.000000,,2013-04-25 13:11:00,
2013-04-25 07:21:00,23.0,13.0,-100.00,WNW,290,1.0,3.0,66,0.00,,,0.01,2.000000,,2013-04-25 13:21:00,
2013-04-25 07:42:00,32.0,15.0,-100.00,South,171,1.0,3.0,50,0.00,,,-99.99,156.000000,,2013-04-25 13:42:00,
2013-04-25 07:53:00,32.0,15.0,-100.00,South,171,1.0,3.0,50,0.00,,,-99.99,156.000000,,2013-04-25 13:53:00,
2013-04-25 08:02:00,32.0,15.0,-100.00,South,171,1.0,3.0,50,0.00,,,-99.99,156.000000,,2013-04-25 14:02:00,
2013-04-25 08:11:00,32.0,15.0,-100.00,South,171,1.0,3.0,50,0.00,,,-99.99,156.000000,,2013-04-25 14:11:00,
2013-04-25 08:21:00,32.0,15.0,-100.00,South,171,1.0,3.0,50,0.00,,,-99.99,156.000000,,2013-04-25 14:21:00,
2013-04-25 08:42:00,33.0,13.0,-100.00,SSE,147,2.0,4.0,43,0.00,,,0.01,433.000000,,2013-04-25 14:42:00,
2013-04-25 08:52:00,33.0,13.0,-100.00,SSE,147,2.0,4.0,43,0.00,,,0.01,433.000000,,2013-04-25 14:52:00,
2013-04-25 09:02:00,33.0,13.0,-100.00,SSE,147,2.0,4.0,43,0.00,,,0.01,433.000000,,2013-04-25 15:02:00,
2013-04-25 09:11:00,33.0,13.0,-100.00,SSE,147,2.0,4.0,43,0.00,,,0.01,433.000000,,2013-04-25 15:11:00,
2013-04-25 09:21:00,33.0,13.0,-100.00,SSE,147,2.0,4.0,43,0.00,,,0.01,433.000000,,2013-04-25 15:21:00,
2013-04-25 09:23:00,39.0,15.0,-100.00,ENE,66,2.0,5.0,37,0.00,,,0.01,672.000000,,2013-04-25 15:23:00,
2013-04-25 09:42:00,39.0,15.0,-100.00,ENE,66,2.0,5.0,37,0.00,,,0.01,672.000000,,2013-04-25 15:42:00,
2013-04-25 09:53:00,39.0,15.0,-100.00,ENE,66,2.0,5.0,37,0.00,,,0.01,672.000000,,2013-04-25 15:53:00,
2013-04-25 10:02:00,39.0,15.0,-100.00,ENE,66,2.0,5.0,37,0.00,,,0.01,672.000000,,2013-04-25 16:02:00,
2013-04-25 10:13:00,39.0,15.0,-100.00,ENE,66,2.0,5.0,37,0.00,,,0.01,672.000000,,2013-04-25 16:13:00,
2013-04-25 10:43:00,43.0,16.0,-100.00,ESE,122,2.0,4.0,33,0.00,,,0.01,772.000000,,2013-04-25 16:43:00,
2013-04-25 10:52:00,43.0,16.0,-100.00,ESE,122,2.0,4.0,33,0.00,,,0.01,772.000000,,2013-04-25 16:52:00,
2013-04-25 11:02:00,43.0,16.0,-100.00,ESE,122,2.0,4.0,33,0.00,,,0.01,772.000000,,2013-04-25 17:02:00,
2013-04-25 11:11:00,43.0,16.0,-100.00,ESE,122,2.0,4.0,33,0.00,,,0.01,772.000000,,2013-04-25 17:11:00,
2013-04-25 11:22:00,43.0,16.0,-100.00,ESE,122,2.0,4.0,33,0.00,,,0.01,772.000000,,2013-04-25 17:22:00,
2013-04-25 11:42:00,47.0,17.0,-100.00,East,98,3.0,5.0,30,0.00,,,0.01,1011.000000,,2013-04-25 17:42:00,
2013-04-25 11:53:00,47.0,17.0,-100.00,East,98,3.0,5.0,30,0.00,,,0.01,1011.000000,,2013-04-25 17:53:00,
2013-04-25 12:01:00,47.0,17.0,-100.00,East,98,3.0,5.0,30,0.00,,,0.01,1011.000000,,2013-04-25 18:01:00,
2013-04-25 12:11:00,47.0,17.0,-100.00,East,98,3.0,5.0,30,0.00,,,0.01,1011.000000,,2013-04-25 18:11:00,
2013-04-25 12:21:00,47.0,17.0,-100.00,East,98,3.0,5.0,30,0.00,,,0.01,1011.000000,,2013-04-25 18:21:00,
2013-04-25 12:43:00,52.0,19.0,-100.00,East,98,2.0,6.0,27,0.00,,,0.00,817.000000,,2013-04-25 18:43:00,
2013-04-25 12:53:00,52.0,19.0,-100.00,East,98,2.0,6.0,27,0.00,,,0.00,817.000000,,2013-04-25 18:53:00,
2013-04-25 13:01:00,52.0,19.0,-100.00,East,98,2.0,6.0,27,0.00,,,0.00,817.000000,,2013-04-25 19:01:00,
2013-04-25 13:12:00,52.0,19.0,-100.00,East,98,2.0,6.0,27,0.00,,,0.00,817.000000,,2013-04-25 19:12:00,
2013-04-25 13:21:00,52.0,19.0,-100.00,East,98,2.0,6.0,27,0.00,,,0.00,817.000000,,2013-04-25 19:21:00,
2013-04-25 13:42:00,56.0,13.0,-100.00,NE,37,3.0,9.0,18,0.00,,,0.00,810.000000,,2013-04-25 19:42:00,
2013-04-25 13:52:00,56.0,13.0,-100.00,NE,37,3.0,9.0,18,0.00,,,0.00,810.000000,,2013-04-25 19:52:00,
2013-04-25 14:02:00,56.0,13.0,-100.00,NE,37,3.0,9.0,18,0.00,,,0.00,810.000000,,2013-04-25 20:02:00,
2013-04-25 14:11:00,56.0,13.0,-100.00,NE,37,3.0,9.0,18,0.00,,,0.00,810.000000,,2013-04-25 20:11:00,
2013-04-25 14:22:00,56.0,13.0,-100.00,NE,37,3.0,9.0,18,0.00,,,0.00,810.000000,,2013-04-25 20:22:00,
2013-04-25 14:43:00,56.0,13.0,-100.00,West,261,3.0,8.0,18,0.00,,,0.00,1015.000000,,2013-04-25 20:43:00,
2013-04-25 14:52:00,56.0,13.0,-100.00,West,261,3.0,8.0,18,0.00,,,0.00,1015.000000,,2013-04-25 20:52:00,
2013-04-25 15:01:00,56.0,13.0,-100.00,West,261,3.0,8.0,18,0.00,,,0.00,1015.000000,,2013-04-25 21:01:00,
2013-04-25 15:11:00,56.0,13.0,-100.00,West,261,3.0,8.0,18,0.00,,,0.00,1015.000000,,2013-04-25 21:11:00,
2013-04-25 15:21:00,56.0,13.0,-100.00,West,261,3.0,8.0,18,0.00,,,0.00,1015.000000,,2013-04-25 21:21:00,
2013-04-25 15:42:00,50.0,16.0,-100.00,WSW,244,5.0,11.0,26,0.00,,,0.00,478.000000,,2013-04-25 21:42:00,
2013-04-25 15:53:00,50.0,16.0,-100.00,WSW,244,5.0,11.0,26,0.00,,,0.00,478.000000,,2013-04-25 21:53:00,
2013-04-25 16:02:00,50.0,16.0,-100.00,WSW,244,5.0,11.0,26,0.00,,,0.00,478.000000,,2013-04-25 22:02:00,
2013-04-25 16:12:00,50.0,16.0,-100.00,WSW,244,5.0,11.0,26,0.00,,,0.00,478.000000,,2013-04-25 22:12:00,
2013-04-25 16:22:00,50.0,16.0,-100.00,WSW,244,5.0,11.0,26,0.00,,,0.00,478.000000,,2013-04-25 22:22:00,
2013-04-25 16:42:00,48.0,20.0,-100.00,SSW,206,3.0,11.0,33,0.00,,,0.00,246.000000,,2013-04-25 22:42:00,
2013-04-25 16:53:00,48.0,20.0,-100.00,SSW,206,3.0,11.0,33,0.00,,,0.00,246.000000,,2013-04-25 22:53:00,
2013-04-25 17:02:00,48.0,20.0,-100.00,SSW,206,3.0,11.0,33,0.00,,,0.00,246.000000,,2013-04-25 23:02:00,
2013-04-25 17:12:00,48.0,20.0,-100.00,SSW,206,3.0,11.0,33,0.00,,,0.00,246.000000,,2013-04-25 23:12:00,
2013-04-25 17:22:00,48.0,20.0,-100.00,SSW,206,3.0,11.0,33,0.00,,,0.00,246.000000,,2013-04-25 23:22:00,
2013-04-25 17:42:00,48.0,21.0,-100.00,SW,220,5.0,10.0,34,0.00,,,0.00,282.000000,,2013-04-25 23:42:00,
2013-04-25 17:52:00,48.0,21.0,-100.00,SW,220,5.0,10.0,34,0.00,,,0.00,282.000000,,2013-04-25 23:52:00,
2013-04-25 18:01:00,48.0,21.0,-100.00,SW,220,5.0,10.0,34,0.00,,,0.00,282.000000,,2013-04-26 00:01:00,
2013-04-25 18:11:00,48.0,21.0,-100.00,SW,220,5.0,10.0,34,0.00,,,0.00,282.000000,,2013-04-26 00:11:00,
2013-04-25 18:21:00,48.0,21.0,-100.00,SW,220,5.0,10.0,34,0.00,,,0.00,282.000000,,2013-04-26 00:21:00,
2013-04-25 18:42:00,46.0,21.0,-100.00,WSW,249,4.0,9.0,37,0.00,,,0.00,142.000000,,2013-04-26 00:42:00,
2013-04-25 18:52:00,46.0,21.0,-100.00,WSW,249,4.0,9.0,37,0.00,,,0.00,142.000000,,2013-04-26 00:52:00,
2013-04-25 19:01:00,46.0,21.0,-100.00,WSW,249,4.0,9.0,37,0.00,,,0.00,142.000000,,2013-04-26 01:01:00,
2013-04-25 19:11:00,46.0,21.0,-100.00,WSW,249,4.0,9.0,37,0.00,,,0.00,142.000000,,2013-04-26 01:11:00,
2013-04-25 19:21:00,46.0,21.0,-100.00,WSW,249,4.0,9.0,37,0.00,,,0.00,142.000000,,2013-04-26 01:21:00,
2013-04-25 19:42:00,45.0,20.0,-100.00,WSW,252,2.0,8.0,37,0.00,,,0.00,56.000000,,2013-04-26 01:42:00,
2013-04-25 19:52:00,45.0,20.0,-100.00,WSW,252,2.0,8.0,37,0.00,,,0.00,56.000000,,2013-04-26 01:52:00,
2013-04-25 20:02:00,45.0,20.0,-100.00,WSW,252,2.0,8.0,37,0.00,,,0.00,56.000000,,2013-04-26 02:02:00,
2013-04-25 20:11:00,45.0,20.0,-100.00,WSW,252,2.0,8.0,37,0.00,,,0.00,56.000000,,2013-04-26 02:11:00,
2013-04-25 20:21:00,45.0,20.0,-100.00,WSW,252,2.0,8.0,37,0.00,,,0.00,56.000000,,2013-04-26 02:21:00,
2013-04-25 20:42:00,39.0,21.0,-100.00,NW,308,3.0,4.0,49,0.00,,,0.00,10.000000,,2013-04-26 02:42:00,
2013-04-25 20:52:00,39.0,21.0,-100.00,NW,308,3.0,4.0,49,0.00,,,0.00,10.000000,,2013-04-26 02:52:00,
2013-04-25 21:01:00,39.0,21.0,-100.00,NW,308,3.0,4.0,49,0.00,,,0.00,10.000000,,2013-04-26 03:01:00,
2013-04-25 21:11:00,39.0,21.0,-100.00,NW,308,3.0,4.0,49,0.00,,,0.00,10.000000,,2013-04-26 03:11:00,
2013-04-25 21:21:00,39.0,21.0,-100.00,NW,308,3.0,4.0,49,0.00,,,0.00,10.000000,,2013-04-26 03:21:00,
2013-04-25 21:43:00,40.0,18.0,-100.00,WNW,288,3.0,5.0,40,0.00,,,0.00,0.000000,,2013-04-26 03:43:00,
2013-04-25 21:53:00,40.0,18.0,-100.00,WNW,288,3.0,5.0,40,0.00,,,0.00,0.000000,,2013-04-26 03:53:00,
2013-04-25 22:02:00,40.0,18.0,-100.00,WNW,288,3.0,5.0,40,0.00,,,0.00,0.000000,,2013-04-26 04:02:00,
2013-04-25 22:12:00,40.0,18.0,-100.00,WNW,288,3.0,5.0,40,0.00,,,0.00,0.000000,,2013-04-26 04:12:00,
2013-04-25 22:22:00,40.0,18.0,-100.00,WNW,288,3.0,5.0,40,0.00,,,0.00,0.000000,,2013-04-26 04:22:00,
2013-04-25 22:43:00,38.0,20.0,-100.00,WNW,293,3.0,4.0,48,0.00,,,0.00,0.000000,,2013-04-26 04:43:00,
2013-04-25 22:53:00,38.0,20.0,-100.00,WNW,293,3.0,4.0,48,0.00,,,0.00,0.000000,,2013-04-26 04:53:00,
2013-04-25 23:02:00,38.0,20.0,-100.00,WNW,293,3.0,4.0,48,0.00,,,0.00,0.000000,,2013-04-26 05:02:00,
2013-04-25 23:12:00,38.0,20.0,-100.00,WNW,293,3.0,4.0,48,0.00,,,0.00,0.000000,,2013-04-26 05:12:00,
2013-04-25 23:22:00,38.0,20.0,-100.00,WNW,293,3.0,4.0,48,0.00,,,0.00,0.000000,,2013-04-26 05:22:00,
2013-04-25 23:42:00,36.0,20.0,-100.00,NW,315,2.0,4.0,52,0.00,,,0.00,0.000000,,2013-04-26 05:42:00,
2013-04-25 23:52:00,36.0,20.0,-100.00,NW,315,2.0,4.0,52,0.00,,,0.00,0.000000,,2013-04-26 05:52:00,